Project,Study,Ord_Occ,Event_Num,Cast_ID,Date_Time_UTC,Date_Time_PST,Lat_Dec,Lon_Dec,Sta_ID,Line,Sta,Depth,Pressure,PrQ,Temp1,Temp1Q,Temp2,Temp2Q,TempAve,Salt1,Salt1Q,Salt1_Corr,Salt2,Salt2Q,Salt2_Corr,SaltAve_Corr,Ox1,Ox1Q,Ox1_CruiseCorr,Ox1_StaCorr,Ox2,Ox2Q,Ox2_CruiseCorr,Ox2_StaCorr,OxAve_StaCorr,Ox1uM,Ox1uM_CruiseCorr,Ox1uM_StaCorr,Ox2uM,Ox2uM_CruiseCorr,Ox2uM_StaCorr,OxAveuM_StaCorr,FluorV,FluorQ,EstChl_CruiseCorr,EstChl_StaCorr,ISUSV,ISUSQ,EstNO3_CruiseCorr,EstNO3_StaCorr,SigThetaTS1,SigThetaTS1Q,SigThetaTS2,SigThetaTS2Q,BAT,XMiss,TransQ,pH,pHQ,SPAR,SPARQ,PAR,PARQ,PoT1,PoT2,DynHt,SVA,OxSat1,OxSat2,BTL_Depth,BTL_Temp,SaltB,OxB,OxBuM,Chl-a,Phaeo,NO3,NO2,NH4,PO4,SIL
CalCOFI,2101RL,035,,2101_035u,23-Jan-2021 14:51:28,23-Jan-2021 06:51:28,33.82534,-118.63046,086.7 035.0,086.7,035.0,517.000,521.363,,6.6293,,6.6292,,6.6293,34.2955,,34.3013,34.2924,,34.2944,34.2979,0.3610,,0.3777,0.3742,0.3676,,0.3884,0.3807,0.3775,15.698,16.6929,27.6676,15.988,17.9088,28.1681,27.9179,0.0326,,,, ,, , ,26.9205,,26.9180,,0.7084,83.7698,,,,7.3895E+00,,1.0000E-12,,6.5813,6.5813,0.9454,120.359,5.277,5.374,,,,,,,,,,,,
CalCOFI,2101RL,035,,2101_035u,23-Jan-2021 14:51:37,23-Jan-2021 06:51:37,33.82535,-118.63050,086.7 035.0,086.7,035.0,516.000,520.354,,6.6330,,6.6342,,6.6336,34.2952,,34.3010,34.2921,,34.2941,34.2976,0.3618,,0.3786,0.3750,0.3664,,0.3872,0.3795,0.3773,15.734,16.7306,27.6969,15.935,17.9489,28.1244,27.9107,0.0320,,,, ,, , ,26.9197,,26.9172,,0.7087,83.7645,,,,7.3895E+00,,1.0000E-12,,6.5851,6.5863,0.9458,120.420,5.290,5.357,,,,,,,,,,,,
CalCOFI,2101RL,035,,2101_035u,23-Jan-2021 14:52:07,23-Jan-2021 06:52:07,33.82547,-118.63055,086.7 035.0,086.7,035.0,515.000,519.344,,6.6380,,6.6387,,6.6384,34.2948,,34.3006,34.2917,,34.2937,34.2972,0.3633,,0.3801,0.3766,0.3683,,0.3892,0.3815,0.3791,15.800,16.7996,27.7507,16.018,18.0223,28.1928,27.9718,0.0325,,,, ,, , ,26.9188,,26.9162,,0.7085,83.7678,,,,7.3953E+00,,1.0000E-12,,6.5902,6.5909,0.9486,120.501,5.312,5.385,515,,34.2879,0.376,16.39,,,,,,,
CalCOFI,2101RL,035,,2101_035u,23-Jan-2021 14:53:58,23-Jan-2021 06:53:58,33.82572,-118.63092,086.7 035.0,086.7,035.0,514.000,518.334,,6.6517,,6.6522,,6.6520,34.2939,,34.2997,34.2906,,34.2926,34.2962,0.3645,,0.3814,0.3779,0.3677,,0.3885,0.3808,0.3794,15.851,16.8530,27.7922,15.990,18.0790,28.1697,27.9810,0.0327,,,, ,, , ,26.9162,,26.9135,,0.7080,83.7792,,,,9.8182E+00,,1.0000E-12,,6.6039,6.6044,0.9561,120.746,5.331,5.377,,,,,,,,,,,,
CalCOFI,2101RL,035,,2101_035u,23-Jan-2021 14:53:55,23-Jan-2021 06:53:55,33.82574,-118.63084,086.7 035.0,086.7,035.0,513.000,517.325,,6.6518,,6.6531,,6.6525,34.2939,,34.2997,34.2908,,34.2928,34.2963,0.3694,,0.3865,0.3830,0.3695,,0.3904,0.3828,0.3829,16.066,17.0781,27.9674,16.070,18.3181,28.2356,28.1015,0.0329,,,, ,, , ,26.9161,,26.9135,,0.7082,83.7742,,,,9.2412E+00,,1.0000E-12,,6.6042,6.6054,0.9558,120.733,5.403,5.404,,,,,,,,,,,,
CalCOFI,2101RL,035,,2101_035u,23-Jan-2021 14:53:56,23-Jan-2021 06:53:56,33.82576,-118.63084,086.7 035.0,086.7,035.0,512.000,516.315,,6.6627,,6.6557,,6.6592,34.2933,,34.2991,34.2906,,34.2926,34.2959,0.3709,,0.3881,0.3846,0.3684,,0.3893,0.3816,0.3831,16.130,17.1451,28.0196,16.020,18.3892,28.1944,28.1070,0.0329,,,, ,, , ,26.9142,,26.9131,,0.7080,83.7795,,,,9.2369E+00,,1.0000E-12,,6.6151,6.6081,0.9558,120.912,5.426,5.388,,,,,,,,,,,,
CalCOFI,2101RL,035,,2101_035u,23-Jan-2021 14:53:58,23-Jan-2021 06:53:58,33.82576,-118.63084,086.7 035.0,086.7,035.0,511.000,515.305,,6.6659,,6.6622,,6.6641,34.2932,,34.2990,34.2901,,34.2921,34.2956,0.3728,,0.3901,0.3865,0.3781,,0.3996,0.3919,0.3892,16.212,17.2309,28.0864,16.442,18.4804,28.5421,28.3143,0.0327,,,, ,, , ,26.9137,,26.9118,,0.7087,83.7644,,,,9.2369E+00,,1.0000E-12,,6.6184,6.6147,0.9558,120.947,5.454,5.531,,,,,,,,,,,,
CalCOFI,2101RL,035,,2101_035u,23-Jan-2021 14:53:59,23-Jan-2021 06:53:59,33.82576,-118.63086,086.7 035.0,086.7,035.0,510.000,514.296,,6.6737,,6.6713,,6.6725,34.2927,,34.2985,34.2897,,34.2917,34.2951,0.3710,,0.3882,0.3847,0.3719,,0.3930,0.3853,0.3850,16.134,17.1493,28.0228,16.175,18.3937,28.3221,28.1725,0.0325,,,, ,, , ,26.9123,,26.9103,,0.7081,83.7763,,,,9.2369E+00,,1.0000E-12,,6.6262,6.6239,0.9558,121.077,5.429,5.442,,,,,,,,,,,,
CalCOFI,2101RL,035,,2101_035u,23-Jan-2021 14:54:00,23-Jan-2021 06:54:00,33.82576,-118.63086,086.7 035.0,086.7,035.0,509.000,513.286,,6.6777,,6.6774,,6.6776,34.2924,,34.2982,34.2893,,34.2913,34.2948,0.3733,,0.3906,0.3871,0.3734,,0.3946,0.3869,0.3870,16.233,17.2529,28.1035,16.239,18.5038,28.3748,28.2392,0.0324,,,, ,, , ,26.9115,,26.9091,,0.7080,83.7784,,,,9.2369E+00,,1.0000E-12,,6.6303,6.6300,0.9558,121.140,5.463,5.464,,,,,,,,,,,,
CalCOFI,2101RL,035,,2101_035u,23-Jan-2021 14:54:02,23-Jan-2021 06:54:02,33.82576,-118.63087,086.7 035.0,086.7,035.0,508.000,512.276,,6.6781,,6.6785,,6.6783,34.2923,,34.2981,34.2892,,34.2912,34.2947,0.3781,,0.3956,0.3921,0.3742,,0.3954,0.3877,0.3899,16.442,17.4717,28.2737,16.272,18.7362,28.4020,28.3379,0.0327,,,, ,, , ,26.9114,,26.9088,,0.7087,83.7645,,,,9.2369E+00,,1.0000E-12,,6.6309,6.6312,0.9558,121.136,5.533,5.476,,,,,,,,,,,,
CalCOFI,2101RL,035,,2101_035u,23-Jan-2021 14:54:02,23-Jan-2021 06:54:02,33.82576,-118.63090,086.7 035.0,086.7,035.0,507.000,511.267,,6.6779,,6.6785,,6.6782,34.2923,,34.2981,34.2893,,34.2913,34.2947,0.3751,,0.3925,0.3889,0.3810,,0.4027,0.3949,0.3919,16.313,17.3366,28.1686,16.572,18.5927,28.6491,28.4089,0.0327,,,, ,, , ,26.9114,,26.9089,,0.7092,83.7534,,,,9.2369E+00,,1.0000E-12,,6.6307,6.6313,0.9558,121.120,5.489,5.576,,,,,,,,,,,,
CalCOFI,2101RL,035,,2101_035u,23-Jan-2021 14:54:04,23-Jan-2021 06:54:04,33.82576,-118.63090,086.7 035.0,086.7,035.0,506.000,510.257,,6.6784,,6.6789,,6.6787,34.2923,,34.2981,34.2892,,34.2912,34.2947,0.3748,,0.3922,0.3886,0.3768,,0.3982,0.3905,0.3896,16.300,17.3230,28.1581,16.389,18.5783,28.4984,28.3283,0.0330,,,, ,, , ,26.9113,,26.9088,,0.7089,83.7594,,,,9.2369E+00,,1.0000E-12,,6.6313,6.6318,0.9558,121.110,5.485,5.515,,,,,,,,,,,,
CalCOFI,2101RL,035,,2101_035u,23-Jan-2021 14:54:04,23-Jan-2021 06:54:04,33.82576,-118.63090,086.7 035.0,086.7,035.0,505.000,509.247,,6.6795,,6.6802,,6.6799,34.2924,,34.2982,34.2891,,34.2911,34.2947,0.3783,,0.3958,0.3923,0.3786,,0.4001,0.3924,0.3924,16.453,17.4832,28.2827,16.467,18.7484,28.5626,28.4227,0.0334,,,, ,, , ,26.9112,,26.9085,,0.7089,83.7594,,,,9.2369E+00,,1.0000E-12,,6.6325,6.6332,0.9558,121.111,5.537,5.542,,,,,,,,,,,,
CalCOFI,2101RL,035,,2101_035u,23-Jan-2021 14:54:06,23-Jan-2021 06:54:06,33.82578,-118.63092,086.7 035.0,086.7,035.0,504.000,508.238,,6.6900,,6.6890,,6.6895,34.2916,,34.2974,34.2886,,34.2906,34.2940,0.3822,,0.3999,0.3964,0.3792,,0.4007,0.3930,0.3947,16.624,17.6622,28.4220,16.491,18.9386,28.5824,28.5022,0.0331,,,, ,, , ,26.9092,,26.9069,,0.7095,83.7472,,,,9.2369E+00,,1.0000E-12,,6.6431,6.6421,0.9558,121.295,5.596,5.551,,,,,,,,,,,,
CalCOFI,2101RL,035,,2101_035u,23-Jan-2021 14:54:07,23-Jan-2021 06:54:07,33.82578,-118.63092,086.7 035.0,086.7,035.0,503.000,507.228,,6.7012,,6.7001,,6.7007,34.2907,,34.2965,34.2876,,34.2896,34.2931,0.3843,,0.4021,0.3986,0.3847,,0.4066,0.3989,0.3988,16.713,17.7554,28.4945,16.729,19.0375,28.7785,28.6365,0.0319,,,, ,, , ,26.9070,,26.9046,,0.7089,83.7595,,,,9.2369E+00,,1.0000E-12,,6.6543,6.6533,0.9558,121.499,5.627,5.632,,,,,,,,,,,,
CalCOFI,2101RL,035,,2101_035u,23-Jan-2021 14:54:08,23-Jan-2021 06:54:08,33.82578,-118.63092,086.7 035.0,086.7,035.0,502.000,506.218,,6.7109,,6.7084,,6.7097,34.2901,,34.2959,34.2869,,34.2889,34.2924,0.3902,,0.4083,0.4047,0.3885,,0.4106,0.4029,0.4038,16.968,18.0223,28.7023,16.895,19.3211,28.9152,28.8088,0.0321,,,, ,, , ,26.9052,,26.9030,,0.7093,83.7508,,,,9.2369E+00,,1.0000E-12,,6.6641,6.6616,0.9558,121.661,5.714,5.689,,,,,,,,,,,,
CalCOFI,2101RL,035,,2101_035u,23-Jan-2021 14:54:09,23-Jan-2021 06:54:09,33.82578,-118.63094,086.7 035.0,086.7,035.0,501.000,505.209,,6.7243,,6.7216,,6.7230,34.2896,,34.2954,34.2866,,34.2886,34.2920,0.3952,,0.4135,0.4100,0.3901,,0.4123,0.4046,0.4073,17.189,18.2536,28.8823,16.963,19.5668,28.9712,28.9268,0.0332,,,, ,, , ,26.9030,,26.9010,,0.7096,83.7446,,,,9.2369E+00,,1.0000E-12,,6.6775,6.6748,0.9558,121.872,5.791,5.714,,,,,,,,,,,,
CalCOFI,2101RL,035,,2101_035u,23-Jan-2021 14:54:10,23-Jan-2021 06:54:10,33.82578,-118.63094,086.7 035.0,086.7,035.0,500.000,504.199,,6.7414,,6.7423,,6.7419,34.2883,,34.2941,34.2853,,34.2873,34.2907,0.3959,,0.4142,0.4107,0.3948,,0.4173,0.4096,0.4102,17.216,18.2819,28.9043,17.168,19.5969,29.1401,29.0222,0.0324,,,, ,, , ,26.8996,,26.8972,,0.7097,83.7431,,,,9.2369E+00,,1.0000E-12,,6.6947,6.6956,0.9558,122.191,5.802,5.785,,,,,,,,,,,,
CalCOFI,2101RL,035,,2101_035u,23-Jan-2021 14:54:11,23-Jan-2021 06:54:11,33.82578,-118.63094,086.7 035.0,086.7,035.0,499.000,503.189,,6.7504,,6.7525,,6.7515,34.2882,,34.2940,34.2851,,34.2871,34.2906,0.4017,,0.4203,0.4167,0.3997,,0.4225,0.4148,0.4158,17.470,18.5478,29.1113,17.383,19.8793,29.3172,29.2143,0.0323,,,, ,, , ,26.8984,,26.8956,,0.7092,83.7532,,,,9.2369E+00,,1.0000E-12,,6.7037,6.7058,0.9558,122.309,5.889,5.859,,,,,,,,,,,,
CalCOFI,2101RL,035,,2101_035u,23-Jan-2021 14:54:12,23-Jan-2021 06:54:12,33.82580,-118.63094,086.7 035.0,086.7,035.0,498.000,502.180,,6.7641,,6.7526,,6.7584,34.2876,,34.2934,34.2846,,34.2866,34.2900,0.4048,,0.4236,0.4200,0.4039,,0.4270,0.4192,0.4196,17.603,18.6870,29.2196,17.566,20.0272,29.4680,29.3438,0.0318,,,, ,, , ,26.8961,,26.8952,,0.7103,83.7302,,,,9.2369E+00,,1.0000E-12,,6.7174,6.7060,0.9558,122.523,5.935,5.921,,,,,,,,,,,,
CalCOFI,2101RL,035,,2101_035u,23-Jan-2021 14:54:14,23-Jan-2021 06:54:14,33.82580,-118.63094,086.7 035.0,086.7,035.0,497.000,501.170,,6.7833,,6.7764,,6.7799,34.2870,,34.2928,34.2845,,34.2865,34.2897,0.4078,,0.4267,0.4231,0.4046,,0.4277,0.4200,0.4216,17.734,18.8242,29.3264,17.595,20.1729,29.4919,29.4092,0.0315,,,, ,, , ,26.8929,,26.8919,,0.7144,83.6427,,,,9.2369E+00,,1.0000E-12,,6.7367,6.7298,0.9558,122.824,5.982,5.934,,,,,,,,,,,,
CalCOFI,2101RL,035,,2101_035u,23-Jan-2021 14:54:14,23-Jan-2021 06:54:14,33.82580,-118.63094,086.7 035.0,086.7,035.0,496.000,500.161,,6.7956,,6.7832,,6.7894,34.2867,,34.2925,34.2845,,34.2865,34.2895,0.4110,,0.4301,0.4265,0.4108,,0.4343,0.4265,0.4265,17.873,18.9697,29.4396,17.866,20.3275,29.7151,29.5774,0.0323,,,, ,, , ,26.8911,,26.8910,,0.7143,83.6460,,,,9.2369E+00,,1.0000E-12,,6.7490,6.7366,0.9558,122.999,6.031,6.027,,,,,,,,,,,,
CalCOFI,2101RL,035,,2101_035u,23-Jan-2021 14:54:15,23-Jan-2021 06:54:15,33.82580,-118.63096,086.7 035.0,086.7,035.0,495.000,499.151,,6.8022,,6.8022,,6.8022,34.2864,,34.2922,34.2834,,34.2854,34.2888,0.4144,,0.4336,0.4300,0.4064,,0.4296,0.4219,0.4260,18.022,19.1256,29.5610,17.673,20.4932,29.5561,29.5586,0.0323,,,, ,, , ,26.8899,,26.8876,,0.7233,83.4588,,,,9.2369E+00,,1.0000E-12,,6.7557,6.7557,0.9558,123.099,6.082,5.964,,,,,,,,,,,,
CalCOFI,2101RL,035,,2101_035u,23-Jan-2021 14:54:16,23-Jan-2021 06:54:16,33.82580,-118.63096,086.7 035.0,086.7,035.0,494.000,498.141,,6.8126,,6.8098,,6.8112,34.2857,,34.2915,34.2827,,34.2847,34.2881,0.4174,,0.4368,0.4332,0.4156,,0.4394,0.4316,0.4324,18.153,19.2628,29.6677,18.076,20.6388,29.8881,29.7779,0.0327,,,, ,, , ,26.8880,,26.8860,,0.7275,83.3698,,,,9.2369E+00,,1.0000E-12,,6.7662,6.7634,0.9558,123.279,6.127,6.101,,,,,,,,,,,,
CalCOFI,2101RL,035,,2101_035u,23-Jan-2021 14:54:17,23-Jan-2021 06:54:17,33.82580,-118.63096,086.7 035.0,086.7,035.0,493.000,497.132,,6.8189,,6.8156,,6.8173,34.2854,,34.2912,34.2822,,34.2842,34.2877,0.4218,,0.4414,0.4378,0.4207,,0.4448,0.4370,0.4374,18.346,19.4648,29.8250,18.296,20.8534,30.0693,29.9472,0.0330,,,, ,, , ,26.8869,,26.8848,,0.7281,83.3587,,,,9.2369E+00,,1.0000E-12,,6.7726,6.7692,0.9558,123.375,6.193,6.176,,,,,,,,,,,,
CalCOFI,2101RL,035,,2101_035u,23-Jan-2021 14:54:18,23-Jan-2021 06:54:18,33.82580,-118.63096,086.7 035.0,086.7,035.0,492.000,496.122,,6.8296,,6.8266,,6.8281,34.2843,,34.2901,34.2818,,34.2838,34.2870,0.4241,,0.4438,0.4402,0.4212,,0.4454,0.4376,0.4389,18.445,19.5684,29.9056,18.317,20.9635,30.0866,29.9961,0.0327,,,, ,, , ,26.8846,,26.8830,,0.7265,83.3903,,,,9.2369E+00,,1.0000E-12,,6.7833,6.7803,0.9558,123.585,6.228,6.185,,,,,,,,,,,,
CalCOFI,2101RL,035,,2101_035u,23-Jan-2021 14:54:19,23-Jan-2021 06:54:19,33.82580,-118.63096,086.7 035.0,086.7,035.0,491.000,495.113,,6.8434,,6.8445,,6.8440,34.2834,,34.2892,34.2802,,34.2822,34.2857,0.4264,,0.4462,0.4426,0.4260,,0.4505,0.4427,0.4427,18.543,19.6710,29.9855,18.529,21.0725,30.2613,30.1234,0.0330,,,, ,, , ,26.8820,,26.8793,,0.7246,83.4309,,,,9.2369E+00,,1.0000E-12,,6.7971,6.7982,0.9558,123.833,6.263,6.259,,,,,,,,,,,,
CalCOFI,2101RL,035,,2101_035u,23-Jan-2021 14:54:20,23-Jan-2021 06:54:20,33.82580,-118.63096,086.7 035.0,086.7,035.0,490.000,494.103,,6.8535,,6.8518,,6.8527,34.2828,,34.2886,34.2799,,34.2819,34.2853,0.4332,,0.4533,0.4497,0.4292,,0.4539,0.4461,0.4479,18.841,19.9830,30.2282,18.666,21.4039,30.3741,30.3012,0.0330,,,, ,, , ,26.8801,,26.8781,,0.7258,83.4059,,,,9.2369E+00,,1.0000E-12,,6.8073,6.8057,0.9558,124.002,6.365,6.306,,,,,,,,,,,,
CalCOFI,2101RL,035,,2101_035u,23-Jan-2021 14:54:21,23-Jan-2021 06:54:21,33.82580,-118.63096,086.7 035.0,086.7,035.0,489.000,493.094,,6.8635,,6.8609,,6.8622,34.2821,,34.2879,34.2792,,34.2812,34.2846,0.4363,,0.4565,0.4529,0.4299,,0.4546,0.4468,0.4499,18.974,20.1222,30.3366,18.696,21.5518,30.3988,30.3677,0.0324,,,, ,, , ,26.8782,,26.8763,,0.7207,83.5124,,,,9.2369E+00,,1.0000E-12,,6.8174,6.8148,0.9558,124.179,6.412,6.317,,,,,,,,,,,,
CalCOFI,2101RL,035,,2101_035u,23-Jan-2021 14:54:22,23-Jan-2021 06:54:22,33.82580,-118.63096,086.7 035.0,086.7,035.0,488.000,492.084,,6.8844,,6.8788,,6.8816,34.2806,,34.2864,34.2781,,34.2801,34.2833,0.4435,,0.4641,0.4604,0.4361,,0.4612,0.4534,0.4569,19.291,20.4540,30.5949,18.965,21.9043,30.6204,30.6077,0.0319,,,, ,, , ,26.8742,,26.8730,,0.7205,83.5164,,,,9.2369E+00,,1.0000E-12,,6.8383,6.8327,0.9558,124.566,6.522,6.411,,,,,,,,,,,,
CalCOFI,2101RL,035,,2101_035u,23-Jan-2021 14:54:23,23-Jan-2021 06:54:23,33.82580,-118.63096,086.7 035.0,086.7,035.0,487.000,491.074,,6.8911,,6.9007,,6.8959,34.2801,,34.2859,34.2765,,34.2785,34.2822,0.4536,,0.4746,0.4710,0.4497,,0.4756,0.4678,0.4694,19.725,20.9083,30.9485,19.559,22.3869,31.1097,31.0291,0.0322,,,, ,, , ,26.8728,,26.8687,,0.7219,83.4869,,,,9.2369E+00,,1.0000E-12,,6.8451,6.8546,0.9558,124.684,6.670,6.615,,,,,,,,,,,,
CalCOFI,2101RL,035,,2101_035u,23-Jan-2021 14:54:24,23-Jan-2021 06:54:24,33.82580,-118.63096,086.7 035.0,086.7,035.0,486.000,490.065,,6.9272,,6.9221,,6.9247,34.2784,,34.2842,34.2755,,34.2775,34.2809,0.4566,,0.4778,0.4741,0.4563,,0.4826,0.4748,0.4745,19.858,21.0476,31.0568,19.846,22.5348,31.3462,31.2015,0.0330,,,, ,, , ,26.8666,,26.8650,,0.7145,83.6426,,,,9.2369E+00,,1.0000E-12,,6.8811,6.8761,0.9558,125.298,6.720,6.715,,,,,,,,,,,,
CalCOFI,2101RL,035,,2101_035u,23-Jan-2021 14:54:25,23-Jan-2021 06:54:25,33.82580,-118.63098,086.7 035.0,086.7,035.0,485.000,489.055,,6.9442,,6.9403,,6.9423,34.2775,,34.2833,34.2745,,34.2765,34.2799,0.4591,,0.4804,0.4767,0.4476,,0.4734,0.4656,0.4712,19.968,21.1627,31.1464,19.466,22.6571,31.0331,31.0898,0.0326,,,, ,, , ,26.8636,,26.8617,,0.7110,83.7147,,,,9.2369E+00,,1.0000E-12,,6.8981,6.8943,0.9558,125.582,6.760,6.589,,,,,,,,,,,,
CalCOFI,2101RL,035,,2101_035u,23-Jan-2021 14:54:26,23-Jan-2021 06:54:26,33.82580,-118.63098,086.7 035.0,086.7,035.0,484.000,488.046,,6.9546,,6.9484,,6.9515,34.2770,,34.2828,34.2737,,34.2757,34.2793,0.4618,,0.4832,0.4796,0.4580,,0.4844,0.4766,0.4781,20.086,21.2862,31.2426,19.918,22.7884,31.4055,31.3241,0.0329,,,, ,, , ,26.8617,,26.8600,,0.7082,83.7750,,,,9.2369E+00,,1.0000E-12,,6.9086,6.9024,0.9558,125.753,6.801,6.743,,,,,,,,,,,,
CalCOFI,2101RL,035,,2101_035u,23-Jan-2021 14:54:27,23-Jan-2021 06:54:27,33.82580,-118.63098,086.7 035.0,086.7,035.0,483.000,487.036,,6.9601,,6.9507,,6.9554,34.2758,,34.2816,34.2732,,34.2752,34.2784,0.4736,,0.4956,0.4919,0.4723,,0.4996,0.4918,0.4919,20.597,21.8211,31.6589,20.540,23.3566,31.9179,31.7884,0.0325,,,, ,, , ,26.8601,,26.8593,,0.7092,83.7521,,,,9.2369E+00,,1.0000E-12,,6.9142,6.9049,0.9558,125.900,6.975,6.954,,,,,,,,,,,,
CalCOFI,2101RL,035,,2101_035u,23-Jan-2021 14:54:28,23-Jan-2021 06:54:28,33.82580,-118.63096,086.7 035.0,086.7,035.0,482.000,486.027,,6.9817,,6.9836,,6.9827,34.2761,,34.2819,34.2721,,34.2741,34.2780,0.4796,,0.5018,0.4982,0.4736,,0.5010,0.4931,0.4957,20.859,22.0954,31.8723,20.599,23.6479,31.9665,31.9194,0.0314,,,, ,, , ,26.8574,,26.8539,,0.7082,83.7734,,,,9.2369E+00,,1.0000E-12,,6.9358,6.9378,0.9558,126.163,7.067,6.979,,,,,,,,,,,,
CalCOFI,2101RL,035,,2101_035u,23-Jan-2021 14:54:29,23-Jan-2021 06:54:29,33.82580,-118.63096,086.7 035.0,086.7,035.0,481.000,485.017,,7.0214,,7.0238,,7.0226,34.2736,,34.2794,34.2701,,34.2721,34.2758,0.4807,,0.5030,0.4993,0.4756,,0.5031,0.4953,0.4973,20.907,22.1456,31.9115,20.687,23.7013,32.0389,31.9752,0.0326,,,, ,, , ,26.8499,,26.8468,,0.7082,83.7750,,,,9.2369E+00,,1.0000E-12,,6.9755,6.9779,0.9558,126.890,7.090,7.015,,,,,,,,,,,,
CalCOFI,2101RL,035,,2101_035u,23-Jan-2021 14:54:30,23-Jan-2021 06:54:30,33.82580,-118.63096,086.7 035.0,086.7,035.0,480.000,484.008,,7.0316,,7.0295,,7.0306,34.2727,,34.2785,34.2699,,34.2719,34.2752,0.4858,,0.5083,0.5047,0.4737,,0.5011,0.4932,0.4990,21.130,22.3791,32.0931,20.601,23.9493,31.9681,32.0306,0.0322,,,, ,, , ,26.8478,,26.8459,,0.7074,83.7909,,,,9.2369E+00,,1.0000E-12,,6.9858,6.9837,0.9558,127.090,7.167,6.987,,,,,,,,,,,,
CalCOFI,2101RL,035,,2101_035u,23-Jan-2021 14:54:31,23-Jan-2021 06:54:31,33.82581,-118.63096,086.7 035.0,086.7,035.0,479.000,482.998,,7.0308,,7.0360,,7.0334,34.2725,,34.2783,34.2696,,34.2716,34.2750,0.4869,,0.5095,0.5058,0.4802,,0.5080,0.5001,0.5030,21.178,22.4293,32.1322,20.885,24.0027,32.2021,32.1672,0.0324,,,, ,, , ,26.8477,,26.8447,,0.7066,83.8063,,,,9.2369E+00,,1.0000E-12,,6.9851,6.9903,0.9558,127.078,7.183,7.085,,,,,,,,,,,,
CalCOFI,2101RL,035,,2101_035u,23-Jan-2021 14:54:32,23-Jan-2021 06:54:32,33.82582,-118.63096,086.7 035.0,086.7,035.0,478.000,481.989,,7.0431,,7.0402,,7.0417,34.2722,,34.2780,34.2694,,34.2714,34.2747,0.4858,,0.5083,0.5047,0.4857,,0.5139,0.5060,0.5054,21.130,22.3791,32.0931,21.127,23.9493,32.4014,32.2473,0.0317,,,, ,, , ,26.8458,,26.8440,,0.7059,83.8224,,,,9.2369E+00,,1.0000E-12,,6.9974,6.9945,0.9558,127.255,7.169,7.167,,,,,,,,,,,,
CalCOFI,2101RL,035,,2101_035u,23-Jan-2021 14:54:33,23-Jan-2021 06:54:33,33.82582,-118.63096,086.7 035.0,086.7,035.0,477.000,480.979,,7.0452,,7.0462,,7.0457,34.2718,,34.2776,34.2687,,34.2707,34.2742,0.4886,,0.5113,0.5076,0.4869,,0.5151,0.5072,0.5074,21.252,22.5068,32.1925,21.177,24.0850,32.4426,32.3176,0.0322,,,, ,, , ,26.8452,,26.8426,,0.7055,83.8302,,,,9.2369E+00,,1.0000E-12,,6.9996,7.0006,0.9558,127.300,7.211,7.185,,,,,,,,,,,,
CalCOFI,2101RL,035,,2101_035u,23-Jan-2021 14:54:34,23-Jan-2021 06:54:34,33.82582,-118.63096,086.7 035.0,086.7,035.0,476.000,479.969,,7.0560,,7.0553,,7.0557,34.2711,,34.2769,34.2682,,34.2702,34.2736,0.4896,,0.5123,0.5086,0.4879,,0.5162,0.5083,0.5085,21.292,22.5487,32.2251,21.219,24.1294,32.4772,32.3512,0.0320,,,, ,, , ,26.8432,,26.8409,,0.7065,83.8087,,,,9.2369E+00,,1.0000E-12,,7.0105,7.0098,0.9558,127.486,7.226,7.201,,,,,,,,,,,,
CalCOFI,2101RL,035,,2101_035u,23-Jan-2021 14:54:35,23-Jan-2021 06:54:35,33.82582,-118.63096,086.7 035.0,086.7,035.0,475.000,478.960,,7.0576,,7.0577,,7.0577,34.2711,,34.2769,34.2680,,34.2700,34.2735,0.4910,,0.5138,0.5101,0.4905,,0.5190,0.5111,0.5106,21.355,22.6146,32.2764,21.333,24.1995,32.5711,32.4238,0.0327,,,, ,, , ,26.8429,,26.8404,,0.7064,83.8100,,,,9.2369E+00,,1.0000E-12,,7.0121,7.0123,0.9558,127.495,7.248,7.240,,,,,,,,,,,,
CalCOFI,2101RL,035,,2101_035u,23-Jan-2021 14:54:36,23-Jan-2021 06:54:36,33.82582,-118.63096,086.7 035.0,086.7,035.0,474.000,477.951,,7.0598,,7.0570,,7.0584,34.2709,,34.2767,34.2678,,34.2698,34.2733,0.4869,,0.5095,0.5058,0.4895,,0.5179,0.5100,0.5079,21.176,22.4272,32.1306,21.290,24.0005,32.5357,32.3332,0.0321,,,, ,, , ,26.8424,,26.8403,,0.7062,83.8154,,,,9.2369E+00,,1.0000E-12,,7.0144,7.0117,0.9558,127.529,7.187,7.225,,,,,,,,,,,,
CalCOFI,2101RL,035,,2101_035u,23-Jan-2021 14:54:37,23-Jan-2021 06:54:37,33.82582,-118.63096,086.7 035.0,086.7,035.0,473.000,476.941,,7.0581,,7.0603,,7.0592,34.2708,,34.2766,34.2678,,34.2698,34.2732,0.4901,,0.5128,0.5092,0.4951,,0.5238,0.5159,0.5126,21.314,22.5717,32.2430,21.532,24.1539,32.7350,32.4890,0.0326,,,, ,, , ,26.8425,,26.8399,,0.7066,83.8066,,,,9.2369E+00,,1.0000E-12,,7.0128,7.0150,0.9558,127.496,7.234,7.308,,,,,,,,,,,,
CalCOFI,2101RL,035,,2101_035u,23-Jan-2021 14:54:38,23-Jan-2021 06:54:38,33.82582,-118.63096,086.7 035.0,086.7,035.0,472.000,475.932,,7.0615,,7.0627,,7.0621,34.2706,,34.2764,34.2675,,34.2695,34.2730,0.4943,,0.5172,0.5135,0.4871,,0.5153,0.5074,0.5105,21.501,22.7674,32.3954,21.183,24.3619,32.4475,32.4215,0.0334,,,, ,, , ,26.8419,,26.8393,,0.7064,83.8104,,,,9.2369E+00,,1.0000E-12,,7.0164,7.0175,0.9558,127.545,7.298,7.190,,,,,,,,,,,,
CalCOFI,2101RL,035,,2101_035u,23-Jan-2021 14:54:39,23-Jan-2021 06:54:39,33.82582,-118.63096,086.7 035.0,086.7,035.0,471.000,474.922,,7.0634,,7.0634,,7.0634,34.2705,,34.2763,34.2673,,34.2693,34.2728,0.4913,,0.5141,0.5104,0.4918,,0.5203,0.5124,0.5114,21.368,22.6282,32.2870,21.388,24.2140,32.6164,32.4517,0.0327,,,, ,, , ,26.8416,,26.8391,,0.7064,83.8116,,,,9.2369E+00,,1.0000E-12,,7.0183,7.0183,0.9558,127.559,7.253,7.260,,,,,,,,,,,,
CalCOFI,2101RL,035,,2101_035u,23-Jan-2021 14:54:40,23-Jan-2021 06:54:40,33.82582,-118.63096,086.7 035.0,086.7,035.0,470.000,473.913,,7.0682,,7.0673,,7.0678,34.2701,,34.2759,34.2673,,34.2693,34.2726,0.4988,,0.5219,0.5182,0.5014,,0.5305,0.5226,0.5204,21.693,22.9684,32.5518,21.809,24.5754,32.9632,32.7575,0.0319,,,, ,, , ,26.8406,,26.8385,,0.7056,83.8274,,,,9.2369E+00,,1.0000E-12,,7.0232,7.0223,0.9558,127.646,7.364,7.403,,,,,,,,,,,,
CalCOFI,2101RL,035,,2101_035u,23-Jan-2021 14:54:41,23-Jan-2021 06:54:41,33.82582,-118.63096,086.7 035.0,086.7,035.0,469.000,472.903,,7.0733,,7.0722,,7.0728,34.2698,,34.2756,34.2669,,34.2689,34.2723,0.5035,,0.5269,0.5232,0.4938,,0.5225,0.5146,0.5189,21.898,23.1830,32.7188,21.475,24.8033,32.6881,32.7035,0.0326,,,, ,, , ,26.8396,,26.8375,,0.7066,83.8075,,,,9.2369E+00,,1.0000E-12,,7.0284,7.0273,0.9558,127.724,7.435,7.291,,,,,,,,,,,,
CalCOFI,2101RL,035,,2101_035u,23-Jan-2021 14:54:42,23-Jan-2021 06:54:42,33.82582,-118.63094,086.7 035.0,086.7,035.0,468.000,471.894,,7.0865,,7.0835,,7.0850,34.2695,,34.2753,34.2665,,34.2685,34.2719,0.5079,,0.5315,0.5278,0.5023,,0.5315,0.5236,0.5257,22.089,23.3830,32.8744,21.846,25.0157,32.9937,32.9341,0.0328,,,, ,, , ,26.8376,,26.8356,,0.7048,83.8458,,,,9.2369E+00,,1.0000E-12,,7.0416,7.0387,0.9558,127.912,7.502,7.419,,,,,,,,,,,,
CalCOFI,2101RL,035,,2101_035u,23-Jan-2021 14:54:43,23-Jan-2021 06:54:43,33.82582,-118.63094,086.7 035.0,086.7,035.0,467.000,470.884,,7.1014,,7.0971,,7.0993,34.2691,,34.2749,34.2655,,34.2675,34.2712,0.5112,,0.5349,0.5312,0.5056,,0.5350,0.5271,0.5292,22.235,23.5358,32.9934,21.992,25.1781,33.1140,33.0537,0.0328,,,, ,, , ,26.8351,,26.8329,,0.7052,83.8370,,,,9.2369E+00,,1.0000E-12,,7.0566,7.0523,0.9558,128.143,7.554,7.470,,,,,,,,,,,,
CalCOFI,2101RL,035,,2101_035u,23-Jan-2021 14:54:44,23-Jan-2021 06:54:44,33.82582,-118.63094,086.7 035.0,086.7,035.0,466.000,469.875,,7.1158,,7.1128,,7.1143,34.2682,,34.2740,34.2651,,34.2671,34.2706,0.5117,,0.5354,0.5317,0.5123,,0.5421,0.5342,0.5330,22.256,23.5578,33.0105,22.281,25.2014,33.3520,33.1813,0.0327,,,, ,, , ,26.8325,,26.8304,,0.7062,83.8145,,,,9.2369E+00,,1.0000E-12,,7.0710,7.0681,0.9558,128.392,7.563,7.571,,,,,,,,,,,,
CalCOFI,2101RL,035,,2101_035u,23-Jan-2021 14:54:45,23-Jan-2021 06:54:45,33.82584,-118.63094,086.7 035.0,086.7,035.0,465.000,468.865,,7.1274,,7.1292,,7.1283,34.2677,,34.2735,34.2645,,34.2665,34.2700,0.5166,,0.5406,0.5369,0.5133,,0.5432,0.5352,0.5361,22.468,23.7797,33.1832,22.326,25.4372,33.3891,33.2862,0.0328,,,, ,, , ,26.8305,,26.8277,,0.7052,83.8362,,,,9.2369E+00,,1.0000E-12,,7.0827,7.0845,0.9558,128.579,7.637,7.589,,,,,,,,,,,,